Lapse_Rate
6.8 6.3 6.2 5.9 5.8 5.9 5.8 5.7 5.4 5.5 5.8 6.2 6.0 5.9 5.3 5.3 5.1 5.1 5.6 5.8 6.4 6.1 5.8 5.4 5.5 5.4 6.1 6.6 7.7 7.7 7.2 7.9 7.2
6.6 6.1 5.7 6.3 6.0 5.8 6.0 5.9 5.5 5.3 5.6 6.2 6.1 5.8 5.5 5.0 4.8 5.1 5.7 6.2 6.6 5.9 5.6 5.6 5.8 6.5 6.8 7.4 8.1 7.4 6.4 6.6 7.3
6.4 6.2 6.0 6.0 6.1 6.2 6.1 6.0 6.0 5.6 5.8 6.0 6.0 6.0 5.7 5.3 4.8 5.0 5.6 6.8 7.0 6.3 6.0 5.8 5.7 6.5 6.8 8.0 7.8 6.9 6.5 7.1 7.5
6.1 6.3 6.1 6.2 6.2 6.1 6.3 6.0 5.8 6.1 6.2 5.9 5.6 5.5 5.5 5.1 5.1 5.3 5.6 6.9 7.2 6.9 6.3 6.0 6.4 6.7 7.3 8.2 7.5 6.5 6.9 7.2 8.4
5.9 6.0 5.8 6.0 6.1 6.3 6.5 6.5 6.3 6.1 6.1 6.3 5.6 5.3 5.4 5.0 5.1 5.6 6.1 7.1 7.4 7.1 6.6 6.3 7.1 7.0 7.4 7.7 8.0 7.0 7.3 7.8 9.0
5.6 5.6 5.7 6.0 5.8 6.0 6.6 6.6 6.6 6.4 6.3 6.1 5.5 5.0 4.6 4.6 4.8 5.2 6.3 7.3 8.2 8.0 7.5 7.2 6.6 6.7 7.4 8.4 7.9 7.2 7.2 7.7 7.9
5.0 5.2 5.5 5.7 5.8 5.9 6.4 6.6 6.4 6.3 5.6 5.8 5.7 4.6 4.3 4.1 4.3 4.9 6.1 7.1 8.1 8.0 7.6 7.3 6.8 6.9 8.0 9.1 7.5 6.7 7.2 8.2 8.3
4.1 4.8 4.6 4.5 4.9 4.9 5.7 6.1 5.7 5.0 4.4 4.2 3.8 4.1 3.9 4.1 4.2 4.7 5.7 6.7 8.2 8.1 6.8 7.0 6.6 6.9 7.7 8.1 7.7 6.9 7.1 8.0 8.3
4.5 4.2 4.2 4.0 4.1 3.8 4.1 4.4 4.7 4.3 4.1 4.4 4.0 3.6 3.4 3.4 4.0 4.8 5.7 5.9 7.4 8.5 7.6 6.9 7.1 7.3 7.8 7.9 7.8 6.9 6.8 7.4 7.9
3.8 4.4 4.1 3.8 3.8 3.9 3.5 3.4 3.7 3.7 3.9 4.0 3.8 3.7 3.3 2.8 3.5 4.4 5.3 5.4 6.3 8.1 7.8 7.4 7.0 7.6 7.8 7.6 7.4 6.8 6.9 7.7 8.1
3.8 4.8 4.4 4.2 4.1 4.2 4.1 4.1 4.2 4.5 4.4 4.4 4.0 3.5 3.7 3.6 3.1 3.7 4.6 5.1 5.7 7.3 7.7 7.6 7.1 7.4 7.6 7.5 7.2 6.8 6.9 8.0 8.3
3.5 4.5 4.4 4.4 4.5 4.3 3.9 4.1 4.2 4.4 4.7 4.9 5.6 4.9 4.6 4.1 4.3 3.9 4.1 4.5 5.1 6.5 7.6 7.2 6.9 7.3 7.7 7.9 7.3 6.7 6.8 7.2 7.6
1.4 2.0 1.7 1.7 3.4 4.8 4.5 4.5 4.4 4.3 4.2 4.7 4.5 4.9 4.3 4.9 4.2 4.2 4.8 4.5 5.2 5.5 6.5 7.2 6.8 6.9 7.4 8.6 7.2 6.9 6.5 6.8 7.2
0.8 1.0 1.1 1.4 2.4 3.4 4.2 5.2 4.8 4.8 4.9 4.6 4.0 4.3 4.5 4.7 5.1 4.6 4.7 4.4 4.8 4.9 4.9 6.0 6.6 6.5 6.7 7.7 7.9 7.1 6.8 6.9 6.9
-0.5 0.3 0.2 0.9 2.0 2.1 2.7 3.4 4.5 5.1 5.0 5.1 5.1 4.1 3.7 4.1 4.7 4.8 5.2 4.9 4.8 4.5 4.5 4.5 5.3 5.7 6.6 6.9 7.3 7.5 6.9 6.6 6.5
-1.0 -0.5 0.2 0.3 0.9 0.9 2.3 3.0 4.3 4.8 5.4 5.3 5.3 4.8 4.8 5.1 4.8 4.3 4.5 4.7 4.4 4.6 4.3 4.2 4.5 4.8 5.1 5.6 6.4 7.2 7.1 6.6 6.3
-0.8 -0.7 -0.7 -0.2 -0.2 0.1 1.0 1.4 2.6 4.2 5.2 5.6 5.6 6.0 5.9 5.2 4.5 4.1 4.9 4.5 4.5 4.1 4.6 4.7 4.2 4.4 4.5 5.0 5.5 6.7 6.9 6.4 6.8
-0.7 -1.0 -0.4 1.1 1.4 0.7 1.7 1.9 3.1 3.8 4.4 3.7 5.2 6.2 5.7 5.4 4.7 4.3 4.3 4.0 4.1 4.3 4.3 4.7 4.4 4.2 4.3 4.3 4.9 5.3 6.2 6.8 6.8
-0.2 0.0 -0.0 1.4 2.1 2.0 1.4 1.2 1.4 2.6 2.9 3.4 3.6 4.1 5.3 6.0 5.7 5.0 4.8 4.9 4.7 4.4 4.2 4.5 5.0 4.8 4.2 3.8 4.4 4.5 4.9 6.3 7.0
0.1 0.3 0.8 0.9 0.9 1.6 1.7 1.7 1.6 1.0 1.2 2.0 2.3 2.8 2.8 4.6 5.3 6.2 5.3 4.8 5.0 5.0 5.1 4.6 4.3 5.0 4.8 4.3 4.0 4.0 4.1 5.6 6.6
Wind_Speed
7 5 3 8 10 12 13 13 12 14 16 16 18 20 19 19 18 15 12 12 14 13 12 13 13 13 13 17 18 15 15 17 21
7 6 6 6 10 12 12 13 14 16 18 17 18 15 17 15 14 14 15 15 14 13 13 12 12 14 15 17 16 14 16 19 21
8 8 8 8 10 12 14 14 15 16 17 17 14 15 14 11 9 11 14 16 14 13 13 12 12 12 16 16 15 11 17 20 20
8 10 9 10 11 11 12 14 15 17 16 15 14 12 13 13 9 9 10 16 15 14 13 13 15 16 19 19 14 15 16 16 17
9 9 11 12 12 11 14 12 17 18 18 15 14 11 11 11 11 11 14 15 14 13 13 16 17 16 18 18 17 16 15 14 16
9 11 12 14 14 15 16 14 17 17 18 19 17 13 8 8 11 13 16 16 13 13 15 17 15 21 18 16 17 19 19 17 17
11 10 13 14 15 17 18 18 17 17 12 13 15 12 11 10 9 16 18 17 14 14 17 18 19 21 17 14 14 19 19 21 15
11 9 10 11 14 12 14 15 14 12 11 10 11 12 12 12 10 15 21 19 18 18 18 17 20 21 18 20 16 17 20 20 21
5 4 7 7 10 7 9 8 8 10 12 11 9 11 11 11 13 16 22 21 22 22 22 22 21 19 19 21 21 21 21 20 18
4 4 4 5 5 6 5 5 4 5 6 7 8 7 8 9 10 14 20 25 23 22 24 25 24 23 21 23 23 24 24 23 20
2 4 2 3 4 3 4 5 6 7 7 7 8 7 7 10 12 14 15 24 25 24 25 27 26 27 24 25 26 27 27 26 24
9 5 5 7 4 5 4 3 3 4 6 8 6 8 10 8 10 11 14 15 25 25 25 26 29 28 27 29 30 29 29 27 25
11 6 6 12 11 4 3 3 5 5 6 7 6 5 4 7 11 12 16 15 17 24 25 25 29 29 29 30 30 32 29 26 25
10 7 8 12 7 6 6 4 3 3 6 6 5 4 5 6 7 8 14 17 18 18 22 27 28 33 31 32 32 32 30 28 26
12 9 9 10 6 7 7 7 6 6 7 7 7 6 5 4 6 9 13 16 18 19 18 19 21 28 31 31 32 31 31 29 28
16 8 8 10 7 7 8 6 6 5 5 7 8 8 8 10 10 8 8 10 14 18 18 16 18 20 26 32 35 31 33 34 32
13 10 7 8 6 9 8 7 4 3 5 3 3 3 6 9 10 8 11 12 11 9 14 17 16 18 18 23 31 34 32 34 35
18 16 11 7 6 6 7 7 7 3 3 8 4 3 4 1 4 12 10 11 9 11 14 16 17 18 17 19 23 28 32 35 35
18 18 16 11 6 7 6 7 5 4 4 4 6 5 3 2 3 3 5 9 11 13 11 11 16 19 18 20 22 25 28 30 35
16 16 15 11 8 8 8 7 8 6 4 4 4 4 6 2 2 5 2 4 6 8 10 10 10 19 20 18 20 26 26 30 32
Wind_Direction
229 205 216 167 170 174 164 159 149 149 154 154 147 140 136 135 134 134 136 126 132 130 128 129 137 132 134 127 126 123 135 136 127
250 222 201 209 183 178 173 168 159 148 150 153 148 146 148 147 146 146 142 138 142 142 144 143 142 141 145 138 126 127 125 132 127
251 230 228 209 195 193 180 176 168 158 155 152 146 158 156 153 153 154 154 150 149 154 156 159 162 154 152 141 118 144 151 136 131
239 223 225 230 212 207 205 187 178 170 163 154 140 154 158 160 162 165 165 154 161 163 167 171 165 158 154 133 143 143 142 139 123
252 231 221 223 224 217 216 204 183 173 171 169 155 149 153 164 176 180 181 169 170 174 179 180 180 173 162 146 152 150 138 134 139
253 241 231 230 219 218 221 210 196 186 180 183 172 163 166 167 189 194 196 186 185 191 189 188 181 173 163 152 167 165 159 145 142
255 250 246 237 231 224 220 214 204 195 183 191 181 176 184 189 202 208 209 206 199 199 198 199 192 173 165 169 162 173 167 152 151
249 249 253 245 243 230 230 220 206 188 183 190 188 186 192 205 202 210 212 215 212 200 195 195 185 180 173 177 186 188 178 162 164
249 229 240 238 228 228 214 199 206 196 193 199 199 197 196 206 214 215 218 221 221 207 202 198 201 197 186 187 196 194 179 163 165
301 280 262 256 247 221 211 208 200 205 203 219 222 223 207 207 219 225 229 223 223 215 207 209 205 205 198 202 200 194 185 174 173
331 302 312 283 262 255 264 224 202 203 200 220 227 233 220 216 211 225 237 233 224 222 208 210 213 207 205 201 197 194 189 176 181
11 17 20 360 290 252 232 235 230 219 213 220 236 232 225 208 216 217 239 226 227 225 214 217 207 204 208 205 202 197 196 188 189
22 22 19 355 355 303 228 219 230 221 226 208 213 227 230 233 211 209 227 229 222 226 219 216 209 211 211 212 210 203 200 197 191
26 20 17 6 360 2 346 266 227 235 242 239 233 210 237 240 244 224 226 222 224 215 217 219 215 212 213 216 212 207 207 200 198
24 17 17 14 15 5 354 344 329 245 235 226 249 221 215 228 235 239 233 231 223 218 210 215 222 217 213 220 226 214 209 202 199
32 19 21 12 22 11 357 337 336 318 268 263 247 238 229 233 236 237 234 230 227 222 213 204 208 218 214 215 224 224 215 206 202
26 23 33 26 20 12 8 9 339 309 343 303 257 269 229 230 227 223 230 221 225 224 228 215 205 208 213 219 224 224 221 215 207
17 19 23 25 27 18 6 10 17 329 311 348 310 263 236 269 212 230 223 214 213 226 226 228 213 211 214 215 220 220 222 220 220
15 16 18 12 7 22 14 21 17 352 11 319 351 318 308 299 272 215 219 232 227 226 225 224 226 217 214 217 215 218 220 222 223
19 19 13 7 1 9 12 23 25 29 26 20 342 344 322 326 289 291 274 209 225 243 232 227 227 229 215 215 219 216 213 223 227